Regional Weather Roundup
Issued by NWS Jackson, KY

Current Version | Previous Version | Text Only | Print | Product List | Glossary On
Versions: 1 2 3 4 5 6 7 8 9 10 11 12 13 14 15 16 17 18 19 20 21 22 23 24 25 26 27
000
ASUS43 KJKL 172210
RWRJKL

EAST KENTUCKY HOURLY WEATHER ROUNDUP
NATIONAL WEATHER SERVICE JACKSON KY
600 PM EDT TUE OCT 17 2017

NOTE: "FAIR" INDICATES FEW OR NO CLOUDS BELOW 12,000 FEET WITH
NO SIGNIFICANT WEATHER AND/OR OBSTRUCTIONS TO VISIBILITY.

* THESE REPORTS ARE NOT UNDER NWS QUALITY CONTROL AND MAY NOT
  REPORT WEATHER SUCH AS PRECIPITATION AND FOG.

KYZ079-080-083-085-087-088-110-112-115-119-120-172300
...EASTERN KENTUCKY...

CITY           SKY/WX    TMP DP  RH WIND       PRES   REMARKS
JACKSON        CLEAR     62  38  40 CALM      30.28S
LONDON         CLEAR     63  36  36 CALM      30.27F
SOMERSET*      SUNNY     63  36  36 CALM      30.28F
MONTICELLO*    SUNNY     63  42  46 N14       30.28F
WILLIAMSBURG*  CLEAR     64  39  39 CALM      30.27S
MIDDLESBORO*   CLEAR     63  42  45 CALM      30.27S
HARLAN APT*    CLEAR     64  36  34 CALM      30.27S
PIKE CO APT*     N/A     60  38  43 CALM      30.28S
BIG SANDY APT* CLEAR     62  40  45 CALM      30.29S
MOREHEAD APT*  CLEAR     63  37  39 CALM      30.30S
$$

KYZ035-036-041-042-044-050-067-078-099-172300
...CENTRAL KENTUCKY...

CITY           SKY/WX    TMP DP  RH WIND       PRES   REMARKS
MT STERLING*   CLEAR     63  41  45 CALM      30.30S
FLEMING/MASON* CLEAR     62  41  47 SE5       30.29S
DANVILLE*      SUNNY     61  41  48 CALM      30.28F
LEXINGTON      SUNNY     63  42  46 S3        30.28S
FRANKFORT      SUNNY     64  38  38 CALM      30.26F
LOUISVILLE     MOSUNNY   66  40  38 SE7       30.26F
LEBANON*         N/A     63  39  42 CALM      30.27S HAZE
GLASGOW*       SUNNY     66  39  36 NE3       30.26F
BOWLING GREEN  SUNNY     67  42  40 NE6       30.26F
$$

KYZ091>093-OHZ055-061-077-WVZ005-015-034-035-042-172300
...SOUTHERN OHIO/WEST VIRGINIA...

CITY           SKY/WX    TMP DP  RH WIND       PRES   REMARKS
COVINGTON      PTCLDY    63  41  44 SW5       30.26F
COLUMBUS       PTCLDY    65  38  36 SW9       30.25S
DAYTON         PTCLDY    62  41  46 SW8       30.26S
WILMINGTON     CLEAR     62  41  46 SW7       30.26S
HUNTINGTON     CLEAR     64  36  35 CALM      30.28S
CHARLESTON     CLEAR     64  33  31 CALM      30.28S
PINEVILLE*     CLEAR     55  42  61 MISG      30.32S
BECKLEY        CLEAR     59  33  37 N5        30.29S
BLUEFIELD      CLEAR     59  29  31 CALM      30.29S
LOGAN CO APT*    N/A     61  37  41 CALM      30.28S
$$

VAZ002-007-008-TNZ017-027-036-066-071-172300
...SOUTHWEST VIRGINIA/EAST TENNESSEE...

CITY           SKY/WX    TMP DP  RH WIND       PRES   REMARKS
WISE*            N/A     59  34  38 CALM      30.30S
JONESVILLE*      N/A     64  36  34 CALM      30.29S
ABINGDON*      CLEAR     64  36  35 CALM      30.28S
BRISTOL        CLEAR     66  36  32 CALM      30.27S
MORRISTOWN*    CLEAR     64  34  32 NE3       30.27R
SEVIERVILLE*   CLEAR     64  41  42 N3        30.26S
KNOXVILLE      SUNNY     65  41  41 E5        30.25F
LAFOLLETTE*    CLEAR     64  41  42 CALM      30.30S
OAK RIDGE      SUNNY     65  41  41 CALM      30.28S
CROSSVILLE     SUNNY     65  36  34 CALM      30.27F
NASHVILLE      PTSUNNY   66  37  34 SE5       30.25F
$$

...KEY TO REMARKS...
VSB - VISIBILITY IN MILES
WCI - WIND CHILL INDEX
HX  - HEAT INDEX

$$




USA.gov is the U.S. government's official web portal to all federal, state and local government web resources and services.